Home   Weather   Papeete   Past weeks

Flag for French Polynesia Past Weather in Papeete, Tahiti, French Polynesia — Yesterday and Last 2 Weeks

Now
84 °F

Rain showers. Partly sunny.


Feels Like: 92 °F
Forecast: 77 / 85 °F
Wind: 18 mph from North

Location: Tahiti-Faaa

Current Time: Jan 21, 2017 at 5:52:34 pm

Latest Report: Jan 21, 2017 at 5:00 pm


Visibility: N/A

Pressure: 29.65 "Hg

Humidity: 74%

Dew Point: 75 °F

Location of PapeeteLocation

Past Weather in Papeete — Graph

°F

Papeete Temperature Yesterday

Maximum temperature yesterday: 82 °F (at 8:00 pm)
Minimum temperature yesterday: 77 °F (at 2:30 am)
Average temperature yesterday: 80 °F

High & Low Weather Summary for the Past Weeks

 TemperatureHumidityPressure
High90 °F (Jan 7, 10:30 am)94% (Jan 9, 9:30 pm)29.95 "Hg (Jan 9, 9:30 pm)
Low73 °F (Jan 11, 3:00 am)46% (Jan 11, 12:30 pm)29.65 "Hg (Jan 21, 3:30 am)
Average81 °F76%29.81 "Hg
* Reported Jan 6 4:00 pm — Jan 21 4:30 pm, Papeete, Weather by CustomWeather, © 2017

Note: Actual official high and low records may vary slightly from our data, if they occured in-between our weather recording intervals... More about our weather records

Advertising

Papeete Weather History for the Previous 24 Hours

Scroll right to see more
 ConditionsComfort  
Time TempWeatherWind HumidityBarometerVisibility
4:30 pm
Sat, Jan 21
84 °FRain showers. Partly sunny.20 mph74%29.65 "HgN/A
4:00 pm84 °FRain showers. Partly sunny.20 mph74%29.65 "HgN/A
3:30 pm84 °FPartly sunny.18 mph74%29.65 "HgN/A
3:00 pm84 °FPartly sunny.23 mph74%29.65 "HgN/A
2:30 pm82 °FSprinkles. Partly sunny.16 mph79%29.65 "HgN/A
2:00 pm84 °FRain showers. Partly sunny.17 mph70%29.68 "HgN/A
1:30 pm84 °FRain showers. Partly sunny.18 mph70%29.68 "HgN/A
1:00 pm84 °FRain showers. Partly sunny.14 mph74%29.68 "HgN/A
12:30 pm82 °FBroken clouds.14 mph74%29.68 "HgN/A
12:00 pm82 °FBroken clouds.16 mph74%29.68 "HgN/A
11:30 am82 °FPartly sunny.17 mph79%29.68 "HgN/A
11:00 am82 °FBroken clouds.14 mph79%29.71 "HgN/A
10:30 am82 °FScattered showers. Broken clouds.14 mph79%29.71 "HgN/A
10:00 am82 °FScattered showers. Broken clouds.18 mph79%29.71 "HgN/A
9:30 am82 °FBroken clouds.22 mph79%29.71 "HgN/A
9:00 am82 °FPartly sunny.22 mph79%29.71 "HgN/A
8:30 am81 °FPartly sunny.23 mph79%29.71 "HgN/A
8:00 am81 °FPartly sunny.22 mph79%29.71 "HgN/A
7:30 am81 °FRain showers. Broken clouds.22 mph84%29.71 "HgN/A
7:00 am81 °FRain showers. Broken clouds.25 mph84%29.71 "HgN/A
6:30 am81 °FRain showers. Broken clouds.17 mph84%29.71 "HgN/A
6:00 am77 °FPartly sunny.8 mph89%29.68 "HgN/A
5:30 am79 °FLight rain. Partly cloudy.14 mph84%29.68 "HgN/A
5:00 am79 °FOvercast.20 mph89%29.68 "HgN/A
4:30 am81 °FPartly cloudy.22 mph79%29.65 "HgN/A
4:00 am79 °FMostly cloudy.17 mph84%29.65 "HgN/A
3:30 am79 °FMostly cloudy.25 mph84%29.65 "HgN/A
3:00 am81 °FScattered showers. Partly cloudy.25 mph84%29.68 "HgN/A
2:30 am81 °FScattered showers. Partly cloudy.23 mph84%29.68 "HgN/A
2:00 am81 °FLight rain. Partly cloudy.23 mph84%29.68 "HgN/A
1:30 am81 °FLight rain. Partly cloudy.25 mph84%29.68 "HgN/A
1:00 am81 °FScattered showers. Passing clouds.23 mph84%29.68 "HgN/A
12:30 am81 °FScattered showers. Passing clouds.22 mph84%29.71 "HgN/A
12:00 am81 °FScattered showers. Passing clouds.20 mph84%29.71 "HgN/A
11:30 pm
Fri, Jan 20
81 °FScattered showers. Partly cloudy.21 mph89%29.74 "HgN/A
11:00 pm81 °FScattered showers. Partly cloudy.21 mph89%29.74 "HgN/A
10:30 pm81 °FScattered showers. Partly cloudy.21 mph89%29.74 "HgN/A
10:00 pm81 °FPartly cloudy.20 mph89%29.74 "HgN/A
9:30 pm81 °FLight rain. Partly cloudy.21 mph89%29.74 "Hg5 mi
9:00 pm81 °FLight rain. Partly cloudy.22 mph89%29.74 "Hg5 mi
8:30 pm82 °FScattered showers. Partly cloudy.21 mph84%29.74 "HgN/A
8:00 pm82 °FScattered showers. Partly cloudy.18 mph84%29.74 "HgN/A
7:30 pm81 °FScattered showers. Partly cloudy.18 mph89%29.74 "HgN/A
7:00 pm79 °FScattered showers. Partly cloudy.13 mph94%29.74 "HgN/A
6:30 pm79 °FScattered showers. Broken clouds.18 mph89%29.74 "HgN/A
6:00 pm81 °FBroken clouds.22 mph89%29.71 "HgN/A
5:30 pm81 °FBroken clouds.22 mph89%29.71 "HgN/A
5:00 pm81 °FScattered showers. Broken clouds.17 mph84%29.71 "HgN/A
Weather by CustomWeather, © 2017

See weather overviewHow to use our weather pages